Flugplatz Burg Feuerstein
 
wir freuen uns auf Euch ! 

 

DSC04520

 


wir sind täglich von 9 bis 18 Uhr unter 09194 - 79 75 75 

oder 

rund um die Uhr per Diese E-Mail-Adresse ist vor Spambots geschützt! Zur Anzeige muss JavaScript eingeschaltet sein! zu erreichen !

 

Flugbetrieb an jedem fliegbaren Tag von 9 Uhr bis 19 Uhr - nach Absprache auch flexibel darüber hinaus ! 

 


 
 
jetzt anmelden

und mit dem Infobrief vom Feuerstein auf dem Laufenden bleiben ... 

 



Wir bieten professionelle und trotzdem sehr günstige Ausbildung in 4 (!) Sparten an:

Motorflug Motorsegler Segelflug Ultraleicht

 

KEINE Landegebühren:
Unsere Flugschüler zahlen am Feuerstein KEINE Landegebühren!!!
(Und sparen so bei der Ausbildung eine Menge Geld!)
Das gilt sogar auch für Scheininhaber, die mal mit Fluglehrer üben!
(gilt auch beim vorgeschriebenen "Übungsflug mit Lehrer" oder bei Einweisungs- und Checkflügen!)

 

Fränkische Fliegerschule Feuerstein e.V. · Flugplatz 1 · 91320 Ebermannstadt

Feuerstein News Ticker

Webcam Blick N

webcam 2

Webcam Blick NO

webcam 1

METAR EDDN

[Quelle: ADDS]
METAR
EDDN 110920Z 26016KT 9999 OVC014 07/05 Q1019 TEMPO 27015G25KT =
TAF
EDDN 110500Z 1106/1206 20005KT 9999 BKN020 BECMG 1107/1109 26010KT TEMPO 1108/1113 26015G25KT 4000 -RADZ BKN012 PROB30 TEMPO 1113/1116 BKN012 PROB30 TEMPO 1116/1206 2500 -DZ BKN009 =
SR / SS: 07:03 / 15:14 UTC (EDQE 2016-12-11)

Wetter EDQE


Das Wetter heute
Das Wetter morgen